Total_Precipitation_Accumulation
1.16 1.17 1.20 1.16 1.13 1.11 1.14 1.14 1.03 0.90 0.77 0.69 0.63 0.61 0.58 0.53 0.52 0.56 0.58 0.62 0.71 0.75 0.71 0.72 0.79 0.85 0.93 1.00 1.12 1.24 1.40 1.53 1.58 1.35 1.12 1.06 1.09 1.13 1.16 1.04 0.95 0.90 0.84
1.00 0.98 0.99 0.91 0.86 0.85 0.84 0.84 0.80 0.78 0.75 0.70 0.65 0.64 0.58 0.52 0.49 0.50 0.50 0.49 0.54 0.59 0.62 0.64 0.63 0.66 0.77 0.85 0.95 1.05 1.16 1.27 1.39 1.36 1.17 1.08 1.08 1.15 1.19 1.17 1.00 0.85 0.78
0.73 0.75 0.79 0.76 0.72 0.73 0.70 0.68 0.72 0.71 0.70 0.66 0.63 0.60 0.55 0.53 0.53 0.51 0.48 0.47 0.45 0.47 0.51 0.57 0.61 0.65 0.74 0.82 0.91 0.95 1.01 1.06 1.21 1.26 1.16 1.10 1.11 1.15 1.25 1.19 1.00 0.93 0.71
0.57 0.57 0.62 0.63 0.61 0.62 0.64 0.61 0.58 0.56 0.58 0.53 0.48 0.49 0.50 0.47 0.43 0.40 0.39 0.41 0.42 0.41 0.41 0.45 0.49 0.57 0.66 0.77 0.83 0.90 0.98 1.08 1.16 1.24 1.23 1.21 1.21 1.19 1.24 1.27 1.09 0.93 0.75
0.54 0.56 0.58 0.60 0.58 0.60 0.61 0.59 0.52 0.46 0.44 0.42 0.41 0.41 0.41 0.36 0.32 0.31 0.32 0.32 0.37 0.39 0.40 0.40 0.39 0.44 0.55 0.61 0.68 0.81 1.00 1.15 1.16 1.21 1.23 1.25 1.25 1.30 1.24 1.16 1.08 0.94 0.77
0.63 0.64 0.63 0.62 0.64 0.63 0.59 0.56 0.50 0.46 0.42 0.39 0.41 0.38 0.31 0.24 0.26 0.28 0.28 0.32 0.37 0.42 0.48 0.46 0.36 0.34 0.38 0.44 0.52 0.63 0.81 1.03 1.17 1.23 1.23 1.21 1.19 1.23 1.22 1.17 1.16 1.13 0.99
0.67 0.65 0.62 0.59 0.60 0.53 0.48 0.51 0.49 0.47 0.43 0.39 0.40 0.37 0.32 0.22 0.18 0.20 0.22 0.28 0.39 0.47 0.52 0.51 0.40 0.33 0.40 0.47 0.49 0.52 0.62 0.79 1.04 1.22 1.28 1.16 1.20 1.28 1.32 1.33 1.24 1.23 1.16
0.63 0.58 0.51 0.51 0.56 0.50 0.48 0.50 0.47 0.46 0.47 0.42 0.38 0.38 0.36 0.21 0.16 0.18 0.21 0.32 0.42 0.44 0.43 0.45 0.49 0.52 0.44 0.44 0.50 0.65 0.80 0.87 0.91 0.96 1.13 1.15 1.18 1.18 1.14 1.17 1.18 1.21 1.11
0.56 0.50 0.45 0.44 0.44 0.44 0.44 0.46 0.48 0.49 0.52 0.45 0.38 0.40 0.40 0.29 0.21 0.22 0.25 0.36 0.43 0.40 0.37 0.36 0.39 0.46 0.44 0.49 0.64 0.88 1.07 1.21 1.05 1.01 1.07 1.21 1.23 1.10 0.94 1.00 1.23 1.32 1.18
0.47 0.42 0.41 0.41 0.41 0.44 0.46 0.48 0.45 0.49 0.55 0.45 0.37 0.38 0.35 0.29 0.22 0.24 0.29 0.35 0.44 0.42 0.43 0.42 0.46 0.47 0.49 0.61 0.76 1.03 1.25 1.36 1.18 1.10 1.22 1.35 1.28 1.18 1.09 1.13 1.33 1.32 1.19
0.34 0.33 0.36 0.37 0.38 0.38 0.46 0.49 0.48 0.47 0.51 0.49 0.43 0.39 0.32 0.23 0.19 0.23 0.26 0.31 0.38 0.45 0.48 0.53 0.55 0.56 0.54 0.65 0.83 1.02 1.23 1.29 1.24 1.21 1.22 1.24 1.24 1.23 1.13 1.12 1.15 1.12 1.12
0.30 0.32 0.34 0.33 0.28 0.29 0.42 0.46 0.46 0.50 0.47 0.47 0.50 0.48 0.35 0.26 0.18 0.16 0.18 0.22 0.30 0.48 0.58 0.60 0.58 0.58 0.61 0.76 0.89 1.10 1.30 1.42 1.31 1.17 1.07 1.02 1.01 1.05 1.02 0.90 0.84 0.82 0.87
0.31 0.36 0.33 0.29 0.28 0.27 0.34 0.37 0.38 0.45 0.44 0.41 0.42 0.40 0.33 0.29 0.20 0.11 0.12 0.15 0.21 0.34 0.51 0.65 0.64 0.60 0.75 1.03 1.21 1.33 1.49 1.54 1.35 1.08 0.99 0.91 0.84 0.80 0.77 0.78 0.74 0.69 0.67
0.37 0.37 0.34 0.35 0.33 0.27 0.26 0.25 0.26 0.29 0.31 0.36 0.35 0.34 0.32 0.29 0.20 0.15 0.17 0.19 0.21 0.27 0.41 0.60 0.73 0.76 0.92 1.21 1.44 1.54 1.58 1.49 1.24 1.02 0.89 0.82 0.75 0.71 0.70 0.67 0.69 0.66 0.69
0.36 0.31 0.29 0.29 0.29 0.27 0.22 0.16 0.14 0.14 0.14 0.21 0.26 0.28 0.29 0.24 0.17 0.17 0.19 0.20 0.23 0.29 0.37 0.54 0.74 0.84 1.04 1.26 1.40 1.41 1.35 1.25 1.15 0.97 0.83 0.77 0.75 0.72 0.70 0.64 0.63 0.59 0.61
0.32 0.31 0.25 0.23 0.21 0.18 0.18 0.16 0.10 0.09 0.09 0.11 0.15 0.17 0.18 0.17 0.15 0.14 0.16 0.20 0.26 0.32 0.40 0.62 0.81 0.90 1.06 1.18 1.26 1.23 1.13 1.04 0.97 0.88 0.81 0.73 0.70 0.68 0.67 0.60 0.54 0.52 0.56
0.22 0.23 0.20 0.16 0.15 0.16 0.17 0.22 0.22 0.15 0.11 0.11 0.12 0.14 0.15 0.15 0.14 0.14 0.15 0.20 0.24 0.30 0.44 0.65 0.82 0.95 1.05 1.08 1.09 1.04 0.99 0.93 0.85 0.78 0.74 0.69 0.62 0.58 0.56 0.51 0.47 0.47 0.46
0.14 0.13 0.13 0.13 0.12 0.14 0.13 0.13 0.18 0.25 0.26 0.21 0.15 0.13 0.13 0.14 0.15 0.16 0.18 0.21 0.30 0.35 0.51 0.67 0.79 0.84 0.90 0.94 0.92 0.91 0.88 0.81 0.74 0.71 0.70 0.67 0.58 0.52 0.47 0.44 0.42 0.40 0.39
0.12 0.12 0.10 0.09 0.08 0.08 0.07 0.06 0.10 0.14 0.20 0.23 0.20 0.16 0.15 0.15 0.18 0.20 0.22 0.27 0.37 0.45 0.53 0.64 0.70 0.73 0.76 0.80 0.78 0.75 0.73 0.69 0.63 0.60 0.60 0.62 0.60 0.52 0.43 0.36 0.32 0.26 0.27
0.08 0.08 0.08 0.06 0.05 0.05 0.05 0.06 0.08 0.10 0.14 0.19 0.22 0.20 0.19 0.27 0.33 0.31 0.27 0.28 0.35 0.43 0.50 0.58 0.60 0.60 0.60 0.61 0.58 0.53 0.54 0.54 0.52 0.53 0.53 0.52 0.51 0.45 0.38 0.31 0.27 0.24 0.24
0.07 0.06 0.06 0.05 0.04 0.04 0.05 0.06 0.07 0.09 0.13 0.17 0.17 0.15 0.23 0.30 0.39 0.37 0.35 0.36 0.39 0.42 0.43 0.46 0.50 0.50 0.45 0.43 0.44 0.44 0.45 0.47 0.47 0.48 0.48 0.46 0.43 0.37 0.31 0.26 0.23 0.20 0.18
0.06 0.06 0.05 0.05 0.04 0.03 0.03 0.05 0.06 0.06 0.09 0.13 0.13 0.13 0.23 0.29 0.36 0.38 0.39 0.41 0.43 0.44 0.42 0.41 0.40 0.41 0.43 0.42 0.40 0.39 0.40 0.42 0.44 0.46 0.44 0.41 0.39 0.33 0.26 0.22 0.20 0.19 0.18
0.06 0.05 0.05 0.04 0.04 0.03 0.03 0.03 0.04 0.05 0.06 0.08 0.10 0.13 0.19 0.29 0.36 0.42 0.46 0.47 0.45 0.42 0.38 0.35 0.37 0.38 0.37 0.35 0.34 0.35 0.35 0.36 0.41 0.44 0.43 0.38 0.33 0.28 0.23 0.20 0.19 0.20 0.18
0.06 0.05 0.04 0.03 0.03 0.02 0.02 0.03 0.03 0.04 0.05 0.06 0.09 0.13 0.18 0.25 0.32 0.41 0.48 0.52 0.52 0.50 0.44 0.40 0.38 0.37 0.35 0.33 0.34 0.34 0.32 0.33 0.34 0.36 0.36 0.31 0.26 0.22 0.20 0.19 0.17 0.17 0.18
0.06 0.05 0.05 0.04 0.02 0.01 0.02 0.02 0.03 0.05 0.04 0.05 0.08 0.13 0.16 0.19 0.24 0.32 0.39 0.44 0.49 0.52 0.51 0.49 0.46 0.40 0.34 0.30 0.27 0.27 0.32 0.33 0.28 0.27 0.31 0.27 0.20 0.18 0.17 0.17 0.16 0.16 0.16
0.06 0.05 0.05 0.04 0.03 0.02 0.02 0.03 0.04 0.04 0.04 0.05 0.08 0.10 0.11 0.14 0.18 0.23 0.26 0.29 0.34 0.41 0.46 0.51 0.52 0.43 0.33 0.28 0.28 0.28 0.26 0.20 0.15 0.16 0.25 0.26 0.20 0.17 0.16 0.15 0.14 0.14 0.15